Location: Brantley
(31.5822°N, 86.2569°W)
Time: 18:47:11
(UTC+00:00)

Courier 1B Rocket - Pass Details

Date: 21 February 2026
Orbit: 920 x 1201 km, 28.2° (Epoch: 10 March)

Event Time Altitude Azimuth Distance (km) Brightness Sun altitude
Rises 06:28:32 0° 260° (W) 3,702 - -67.8°
Reaches altitude 10° 06:33:05 10° 232° (SW) 2,817 - -67.5°
Maximum altitude 06:35:41 12° 209° (SSW) 2,686 - -67.3°
Drops below altitude 10° 06:38:19 10° 187° (S) 2,895 - -67.0°
Sets 06:43:12 0° 159° (SSE) 3,923 - -66.6°
